Monterey, CA

3:22 AM PDT on October 17, 2017 (GMT -0700)
Monterey Peninsula

Weather History for KMRY - June, 2013

Change the Weather History Date:

Sunday, June 23, 2013

  Actual Average Record
Temperature  
Mean Temperature 62 °F 60 °F  
Max Temperature 69 °F 67 °F 75 °F (2017)
Min Temperature 55 °F 53 °F 49 °F (2009)
Degree Days  
Heating Degree Days 3    
Month to date heating degree days 128  
Since 1 June heating degree days 128  
Since 1 July heating degree days 3274  
Cooling Degree Days 0    
Month to date cooling degree days 0  
Year to date cooling degree days 7  
Since 1 June cooling degree days 0  
Growing Degree Days 12 (Base 50)    
Moisture  
Dew Point 56 °F    
Average Humidity 80    
Maximum Humidity 93    
Minimum Humidity 66    
Precipitation  
Precipitation 0.02 in - 0.02 in (1998)
Month to date precipitation 0.02  
Year to date precipitation 3.13  
Since 1 July precipitation 11.37  
Sea Level Pressure  
Sea Level Pressure 29.94 in    
Wind  
Wind Speed 4 mph (WSW)    
Max Wind Speed 10 mph    
Max Gust Speed 15 mph    
Visibility 7 miles    
Events      
T = Trace of Precipitation, MM = Missing Value Source: NWS Daily Summary

Daily Weather History Graph

Daily Weather History Graph

Search for Another Location

Airport or City:

Trip Planner

Search our weather history database for the weather conditions in past years. The results will help you decide how hot, cold, wet, or windy it might be!

Date:

Astronomy

Jun. 23, 2013 Rise Set
Actual Time 5:49 AM PDT 8:29 PM PDT
Civil Twilight 5:19 AM PDT 9:00 PM PDT
Nautical Twilight 4:41 AM PDT 9:38 PM PDT
Astronomical Twilight 3:58 AM PDT 10:20 PM PDT
Moon 8:49 PM PDT (6/23) 6:11 AM PDT (6/23)
Length of Visible Light 15h 40m
Length of Day
14h 39m
Full, 100% of the Moon is Illuminated
Jun 23
Full
Jun 29
Last Quarter
Jul 8
New
Jul 15
First Quarter
Jul 22
Full

Hourly Weather History & Observations

Time (PDT) Temp. Dew Point Humidity Pressure Visibility Wind Dir Wind Speed Gust Speed Precip Events Conditions
12:54 AM 57.0 °F 54.0 °F 89% 29.99 in 10.0 mi SSW 6.9 mph - N/A   Overcast
1:54 AM 57.0 °F 55.0 °F 93% 29.98 in 7.0 mi SW 5.8 mph - N/A   Overcast
2:19 AM 55.4 °F 53.6 °F 94% 29.94 in 2.5 mi SW 5.8 mph - N/A   Overcast
2:54 AM 55.9 °F 54.0 °F 93% 29.98 in 2.0 mi SW 5.8 mph - N/A   Overcast
3:03 AM 55.4 °F 53.6 °F 94% 29.94 in 1.8 mi SW 6.9 mph - N/A   Overcast
3:20 AM 55.4 °F 53.6 °F 94% 29.94 in 3.0 mi SW 8.1 mph - N/A   Overcast
3:50 AM 55.4 °F 53.6 °F 94% 29.93 in 1.8 mi SSW 5.8 mph - N/A   Overcast
3:51 AM 55.9 °F 54.0 °F 93% 29.97 in 1.8 mi SSW 5.8 mph - N/A   Overcast
4:13 AM 55.4 °F 53.6 °F 94% 29.93 in 2.5 mi SW 5.8 mph - N/A   Overcast
4:54 AM 55.9 °F 54.0 °F 93% 29.97 in 2.0 mi SW 3.5 mph - 0.01 in   Overcast
5:22 AM 55.4 °F 53.6 °F 94% 29.93 in 1.8 mi SW 3.5 mph - N/A   Overcast
5:31 AM 55.4 °F 53.6 °F 94% 29.93 in 3.0 mi SW 5.8 mph - N/A   Overcast
5:54 AM 55.0 °F 54.0 °F 96% 29.97 in 3.0 mi South 5.8 mph - N/A   Overcast
6:13 AM 55.4 °F 53.6 °F 94% 29.93 in 8.0 mi South 4.6 mph - N/A   Overcast
6:54 AM 57.0 °F 55.0 °F 93% 29.97 in 10.0 mi WSW 4.6 mph - N/A   Overcast
7:54 AM 57.0 °F 55.0 °F 93% 29.96 in 10.0 mi Calm Calm - N/A   Overcast
8:54 AM 59.0 °F 55.0 °F 87% 29.97 in 10.0 mi WNW 5.8 mph - N/A   Overcast
9:47 AM 60.8 °F 55.4 °F 82% 29.94 in 3.0 mi WSW 4.6 mph - N/A   Overcast
9:54 AM 59.0 °F 57.0 °F 93% 29.97 in 3.0 mi Calm Calm - N/A   Overcast
10:30 AM 62.6 °F 57.2 °F 82% 29.94 in 10.0 mi Calm Calm - N/A   Overcast
10:41 AM 62.6 °F 55.4 °F 77% 29.94 in 10.0 mi NNW 3.5 mph - N/A   Overcast
10:49 AM 60.8 °F 55.4 °F 82% 29.94 in 10.0 mi NW 4.6 mph - N/A   Overcast
10:54 AM 62.1 °F 55.9 °F 80% 29.98 in 10.0 mi WNW 3.5 mph - N/A   Overcast
11:04 AM 60.8 °F 55.4 °F 82% 29.94 in 10.0 mi Calm Calm - N/A   Overcast
11:54 AM 64.0 °F 55.9 °F 75% 29.96 in 10.0 mi West 5.8 mph - N/A   Overcast
12:54 PM 63.0 °F 55.9 °F 78% 29.97 in 10.0 mi Variable 3.5 mph - N/A   Overcast
1:12 PM 66.2 °F 55.4 °F 68% 29.93 in 10.0 mi West 4.6 mph - N/A   Scattered Clouds
1:54 PM 66.9 °F 57.0 °F 70% 29.95 in 10.0 mi WNW 8.1 mph - N/A   Clear
2:54 PM 69.1 °F 57.9 °F 68% 29.92 in 10.0 mi West 4.6 mph - N/A   Partly Cloudy
3:54 PM 68.0 °F 57.9 °F 70% 29.93 in 10.0 mi Variable 6.9 mph - N/A   Mostly Cloudy
4:30 PM 66.2 °F 57.2 °F 73% 29.89 in 10.0 mi WNW 9.2 mph - N/A   Overcast
4:54 PM 66.0 °F 59.0 °F 78% 29.93 in 10.0 mi SSW 6.9 mph - N/A   Overcast
5:11 PM 64.4 °F 57.2 °F 77% 29.89 in 10.0 mi South 6.9 mph - N/A   Overcast
5:42 PM 64.4 °F 59.0 °F 83% 29.88 in 10.0 mi Variable 3.5 mph - N/A   Overcast
5:54 PM 64.9 °F 59.0 °F 81% 29.92 in 10.0 mi WSW 6.9 mph - N/A   Overcast
6:09 PM 64.4 °F 59.0 °F 83% 29.88 in 10.0 mi WSW 6.9 mph - N/A   Overcast
6:54 PM 63.0 °F 60.1 °F 90% 29.92 in 4.0 mi SSW 4.6 mph - 0.01 in   Overcast
7:54 PM 62.1 °F 59.0 °F 90% 29.91 in 10.0 mi WSW 3.5 mph - N/A   Overcast
8:54 PM 62.1 °F 59.0 °F 90% 29.90 in 10.0 mi WSW 4.6 mph - N/A   Overcast
9:54 PM 61.0 °F 57.9 °F 90% 29.90 in 10.0 mi West 3.5 mph - N/A   Overcast
10:54 PM 61.0 °F 57.9 °F 90% 29.91 in 10.0 mi NW 3.5 mph - N/A   Overcast
11:07 PM 60.8 °F 57.2 °F 88% 29.87 in 10.0 mi Calm Calm - N/A   Overcast
11:54 PM 60.1 °F 57.9 °F 93% 29.89 in 10.0 mi Calm Calm - N/A   Overcast